Spokane Felts, WA
on Sunday, November 4, 2012

Sunday
Previous Day Next Day
Daily Summary
 ActualAverageRecord
Temperature
Mean Temperature °F / °C 41°F / 5°C  
Max Temperature 60°F / 16°C 49°F / 9°C 60°F / 15°C (2007)
Min Temperature 49°F / 9°C 33°F / 1°C 16°F / -8°C (2003)
Degree Days
Heating Degree Days 10 24  
Month to date heating degree days 54 94  
Since 1 July heating degree days 613 831  
Cooling Degree Days 0 0  
Month to date cooling degree days 0 0  
Year to date cooling degree days 509 406  
Growing Degree Days5 (Base °F / °C )  
Moisture
Dew Point 47°F / 8°C   
Average Humidity 77    
Maximum Humidity 89    
Minimum Humidity 64    
Precipitation
Precipitation T in / T cm 0.07 in / 1.78 cm 0.25 in / 0.63 cm (2006)
Month to date precipitation 0.42 0.26  
Year to date precipitation 16.01 13.21  
Wind
Wind Speed 2 mph / 3 km/h   
Max Wind Speed 14 mph / 23 km/h   
Max Gust Speed 17 mph / 27 km/h   
Visibility 10 miles / 16 kilometers   
Events     

Key: T is trace of precipitation, MM is missing value
Source: NWS Daily Summary
Time(PST)TemperatureDew PointHumidity Pressure Visibility Wind DirectionWind SpeedGust SpeedPrecipitationEvents Conditions
12:53 AM 52.0°F / 11.1°C 46.0°F / 7.8°C 80% 30.19 in / 1022.3 hPa 10.0 miles / 16.1 kilometers Calm Calm - N/A   Overcast
1:53 AM 52.0°F / 11.1°C 46.9°F / 8.3°C 83% 30.20 in / 1022.6 hPa 10.0 miles / 16.1 kilometers Calm Calm - N/A   Overcast
1:36 AM 50.0°F / 10.0°C 46.4°F / 8.0°C 87% 30.21 in / 1022.9 hPa 10.0 miles / 16.1 kilometers Calm Calm - N/A   Mostly Cloudy
1:53 AM 50.0°F / 10.0°C 46.9°F / 8.3°C 89% 30.22 in / 1023.2 hPa 10.0 miles / 16.1 kilometers Calm Calm - N/A   Scattered Clouds
2:32 AM 50.0°F / 10.0°C 46.4°F / 8.0°C 87% 30.21 in / 1022.9 hPa 10.0 miles / 16.1 kilometers NNE 3.5 mph / 5.6 km/h - N/A   Overcast
2:43 AM 50.0°F / 10.0°C 46.4°F / 8.0°C 87% 30.22 in / 1023.2 hPa 10.0 miles / 16.1 kilometers Calm Calm - N/A   Overcast
2:53 AM 50.0°F / 10.0°C 46.9°F / 8.3°C 89% 30.22 in / 1023.4 hPa 10.0 miles / 16.1 kilometers Calm Calm - N/A   Overcast
3:11 AM 50.0°F / 10.0°C 46.4°F / 8.0°C 87% 30.22 in / 1023.2 hPa 10.0 miles / 16.1 kilometers Calm Calm - N/A   Overcast
3:53 AM 50.0°F / 10.0°C 46.9°F / 8.3°C 89% 30.22 in / 1023.4 hPa 7.0 miles / 11.3 kilometers Calm Calm - N/A   Mostly Cloudy
4:53 AM 50.0°F / 10.0°C 46.9°F / 8.3°C 89% 30.25 in / 1024.2 hPa 9.0 miles / 14.5 kilometers Calm Calm - N/A   Overcast
5:53 AM 50.0°F / 10.0°C 46.0°F / 7.8°C 86% 30.26 in / 1024.7 hPa 10.0 miles / 16.1 kilometers ENE 3.5 mph / 5.6 km/h - N/A   Overcast
6:53 AM 50.0°F / 10.0°C 46.9°F / 8.3°C 89% 30.29 in / 1025.5 hPa 10.0 miles / 16.1 kilometers Calm Calm - 0.00 in / 0.0 cm   Overcast
7:53 AM 52.0°F / 11.1°C 48.0°F / 8.9°C 86% 30.31 in / 1026.3 hPa 10.0 miles / 16.1 kilometers Calm Calm - N/A   Overcast
8:53 AM 54.0°F / 12.2°C 48.0°F / 8.9°C 80% 30.30 in / 1026.1 hPa 10.0 miles / 16.1 kilometers Calm Calm - N/A   Overcast
9:53 AM 55.9°F / 13.3°C 48.9°F / 9.4°C 77% 30.31 in / 1026.4 hPa 10.0 miles / 16.1 kilometers Calm Calm - N/A   Overcast
10:53 AM 57.9°F / 14.4°C 48.0°F / 8.9°C 70% 30.31 in / 1026.3 hPa 10.0 miles / 16.1 kilometers South 6.9 mph / 11.1 km/h - N/A   Overcast
11:53 AM 57.9°F / 14.4°C 48.0°F / 8.9°C 70% 30.31 in / 1026.4 hPa 10.0 miles / 16.1 kilometers Calm Calm - N/A   Overcast
12:53 PM 60.1°F / 15.6°C 48.0°F / 8.9°C 64% 30.30 in / 1025.9 hPa 10.0 miles / 16.1 kilometers South 6.9 mph / 11.1 km/h - N/A   Overcast
1:53 PM 60.1°F / 15.6°C 48.0°F / 8.9°C 64% 30.31 in / 1026.2 hPa 10.0 miles / 16.1 kilometers SSW 5.8 mph / 9.3 km/h - N/A   Overcast
2:53 PM 60.1°F / 15.6°C 48.0°F / 8.9°C 64% 30.32 in / 1026.6 hPa 10.0 miles / 16.1 kilometers Calm Calm - N/A   Overcast
3:53 PM 57.9°F / 14.4°C 50.0°F / 10.0°C 75% 30.32 in / 1026.6 hPa 10.0 miles / 16.1 kilometers Calm Calm - N/A   Overcast
4:53 PM 57.0°F / 13.9°C 50.0°F / 10.0°C 77% 30.31 in / 1026.2 hPa 10.0 miles / 16.1 kilometers Calm Calm - N/A   Overcast
5:53 PM 57.9°F / 14.4°C 48.0°F / 8.9°C 70% 30.29 in / 1025.6 hPa 10.0 miles / 16.1 kilometers ESE 4.6 mph / 7.4 km/h - N/A   Overcast
6:53 PM 57.9°F / 14.4°C 46.9°F / 8.3°C 67% 30.31 in / 1026.2 hPa 10.0 miles / 16.1 kilometers Calm Calm - N/A   Overcast
7:53 PM 55.9°F / 13.3°C 48.0°F / 8.9°C 75% 30.29 in / 1025.6 hPa 10.0 miles / 16.1 kilometers Calm Calm - N/A   Overcast
8:53 PM 57.0°F / 13.9°C 46.9°F / 8.3°C 69% 30.28 in / 1025.3 hPa 10.0 miles / 16.1 kilometers Calm Calm - N/A   Overcast
9:50 PM 57.2°F / 14.0°C 46.4°F / 8.0°C 67% 30.29 in / 1025.6 hPa 10.0 miles / 16.1 kilometers West 3.5 mph / 5.6 km/h - N/A   Overcast
9:53 PM 57.9°F / 14.4°C 46.9°F / 8.3°C 67% 30.29 in / 1025.5 hPa 10.0 miles / 16.1 kilometers West 4.6 mph / 7.4 km/h - N/A   Overcast
10:53 PM 57.9°F / 14.4°C 46.9°F / 8.3°C 67% 30.26 in / 1024.5 hPa 10.0 miles / 16.1 kilometers SW 6.9 mph / 11.1 km/h - N/A   Mostly Cloudy
Moon Phase
Nov. 04 Nov. 06 Nov. 13 Nov. 20 Nov. 28
Sunrise:06:38 AM (PST) Moon Rise:09:05 PM (PST)11/4
Sunset:04:26 PM (PST) Moon Set:11:29 AM (PST)11/4

Copyright © 2014 The Weather Underground, Inc.